{"data":{"norad_id":56448,"intl_designator":"2023-064A","name":"STARLINK-5990","alt_names":[],"object_type":"PAYLOAD","status":"ACTIVE","operator":null,"country":"US","launch_date":"2023-05-10","launch_site_code":"AFWTR","launch_vehicle":null,"mission":null,"orbit_class":"UNKNOWN","rcs_meters":null,"size_class":null,"mass_kg":null,"dimensions":null,"purposes":["comms"],"wikipedia_slug":null,"has_3d_model":false,"image_url":null,"decayed_at":null,"tle_current":{"epoch":"2026-09-20T13:22:58.454400Z","epoch_age_seconds":107074,"freshness":"FRESH","line1":"1 56448U 23064A   26263.55762100 -.00000252  00000+0 -13359-4 0  9992","line2":"2 56448  70.0011  13.1975 0003176 268.2753  91.8043 14.98331385184434","mean_motion":14.98331385,"eccentricity":0.0003176,"inclination_deg":70.0011,"raan_deg":13.1975,"arg_perigee_deg":268.2753,"mean_anomaly_deg":91.8043,"bstar":-1.3359e-5,"rev_number":18443,"period_min":96.106910288074,"perigee_km":569.84422804758,"apogee_km":574.25898785135,"semimajor_km":6950.1886079495,"source":"CELESTRAK","updated_at":"2026-09-21T09:00:33.440865Z"}}}